When you browse on this site, cookies collect data to enhance your experience and personalize the content and advertising you see.
Visit our Privacy Policy to learn more. By continuing to use the site, you agree to this use of cookies and data.
  • In Austria
  • List of Countries
  • For 7 days
  • Water Temperature
  • Satellite Maps
  • Weather Map
  • News
  • Weather Widgets
  • user-avatar
    Login

    Hourly Weather Mauritius

    Today, 19 April, Friday

    Time Temperature Precipitation Wind Pressure Humidity
    00:00 +25°C° 0 mm 5 mps 725 mmHg 81%
    01:00 +25°C° 0 mm 5 mps 725 mmHg 82%
    02:00 +25°C° 0 mm 5 mps 725 mmHg 82%
    03:00 +25°C° 0 mm 5 mps 725 mmHg 82%
    04:00 +25°C° 0 mm 5 mps 724 mmHg 81%
    05:00 +25°C° 0 mm 5 mps 725 mmHg 81%
    06:00 +25°C° 0 mm 5 mps 725 mmHg 81%
    07:00 +25°C° 0 mm 5 mps 725 mmHg 81%
    08:00 +26°C° 0 mm 5 mps 725 mmHg 77%
    09:00 +26°C° 0 mm 5 mps 725 mmHg 73%
    10:00 +27°C° 0 mm 5 mps 725 mmHg 69%
    11:00 +28°C° 0 mm 5 mps 725 mmHg 67%
    12:00 +28°C° 0 mm 5 mps 725 mmHg 66%
    13:00 +28°C° 0 mm 5 mps 725 mmHg 64%
    14:00 +28°C° 0 mm 5 mps 724 mmHg 66%
    15:00 +28°C° 0 mm 5 mps 724 mmHg 68%
    16:00 +27°C° 0 mm 5 mps 724 mmHg 70%
    17:00 +27°C° 0 mm 4 mps 724 mmHg 73%
    18:00 +26°C° 0 mm 4 mps 724 mmHg 77%
    19:00 +26°C° 0 mm 4 mps 724 mmHg 80%
    20:00 +26°C° 0.1 mm 4 mps 724 mmHg 81%
    21:00 +26°C° 0.1 mm 4 mps 724 mmHg 82%
    22:00 +26°C° 0.1 mm 4 mps 725 mmHg 82%
    23:00 +25°C° 0 mm 4 mps 725 mmHg 83%

    Tomorrow, 20 April, Saturday

    Time Temperature Precipitation Wind Pressure Humidity
    00:00 +25°C° 0 mm 4 mps 724 mmHg 83%
    01:00 +25°C° 0 mm 4 mps 724 mmHg 83%
    02:00 +25°C° 0 mm 4 mps 724 mmHg 83%
    03:00 +25°C° 0 mm 4 mps 724 mmHg 84%
    04:00 +25°C° 0 mm 4 mps 723 mmHg 84%
    05:00 +25°C° 0.1 mm 4 mps 723 mmHg 83%
    06:00 +25°C° 0.1 mm 4 mps 724 mmHg 82%
    07:00 +25°C° 0.1 mm 4 mps 724 mmHg 81%
    08:00 +26°C° 0 mm 4 mps 724 mmHg 77%
    09:00 +27°C° 0 mm 4 mps 725 mmHg 73%
    10:00 +28°C° 0 mm 5 mps 725 mmHg 69%
    11:00 +28°C° 0 mm 5 mps 725 mmHg 67%
    12:00 +29°C° 0 mm 5 mps 724 mmHg 65%
    13:00 +29°C° 0 mm 5 mps 724 mmHg 64%
    14:00 +29°C° 0 mm 5 mps 723 mmHg 65%
    15:00 +28°C° 0 mm 5 mps 723 mmHg 67%
    16:00 +28°C° 0 mm 5 mps 723 mmHg 69%
    17:00 +27°C° 0 mm 5 mps 723 mmHg 72%
    18:00 +27°C° 0 mm 5 mps 723 mmHg 76%
    19:00 +26°C° 0 mm 5 mps 723 mmHg 80%
    20:00 +26°C° 0 mm 5 mps 723 mmHg 81%
    21:00 +26°C° 0 mm 5 mps 723 mmHg 81%
    22:00 +25°C° 0 mm 5 mps 724 mmHg 82%
    23:00 +25°C° 0.1 mm 5 mps 723 mmHg 82%

    Day after tomorrow, 21 April, Sunday

    Time Temperature Precipitation Wind Pressure Humidity
    00:00 +25°C° 0.1 mm 5 mps 723 mmHg 83%
    01:00 +25°C° 0.1 mm 5 mps 723 mmHg 83%
    02:00 +25°C° 0 mm 5 mps 723 mmHg 83%
    03:00 +25°C° 0 mm 5 mps 722 mmHg 83%
    04:00 +25°C° 0 mm 5 mps 722 mmHg 84%
    05:00 +25°C° 0 mm 5 mps 722 mmHg 83%
    06:00 +25°C° 0 mm 5 mps 722 mmHg 83%
    07:00 +25°C° 0 mm 5 mps 723 mmHg 83%
    08:00 +26°C° 0.2 mm 6 mps 723 mmHg 80%
    09:00 +27°C° 0.2 mm 6 mps 724 mmHg 76%
    10:00 +28°C° 0.2 mm 6 mps 724 mmHg 73%
    11:00 +28°C° 0.3 mm 6 mps 723 mmHg 73%
    12:00 +28°C° 0.3 mm 6 mps 723 mmHg 73%
    13:00 +28°C° 0.3 mm 6 mps 722 mmHg 73%
    14:00 +28°C° 0.6 mm 5 mps 722 mmHg 74%
    15:00 +28°C° 0.6 mm 5 mps 722 mmHg 76%
    16:00 +27°C° 0.6 mm 5 mps 722 mmHg 77%
    17:00 +27°C° 0.1 mm 5 mps 722 mmHg 80%
    18:00 +26°C° 0.1 mm 5 mps 722 mmHg 83%
    19:00 +26°C° 0.1 mm 5 mps 722 mmHg 85%
    20:00 +26°C° 0.2 mm 5 mps 722 mmHg 86%
    21:00 +25°C° 0.2 mm 4 mps 723 mmHg 86%
    22:00 +25°C° 0.2 mm 4 mps 723 mmHg 86%
    23:00 +25°C° 0.3 mm 4 mps 723 mmHg 86%

    22 April, Monday

    Time Temperature Precipitation Wind Pressure Humidity
    00:00 +25°C° 0.3 mm 4 mps 723 mmHg 87%
    01:00 +25°C° 0.3 mm 4 mps 722 mmHg 87%
    02:00 +25°C° 0.6 mm 4 mps 722 mmHg 87%
    03:00 +25°C° 0.6 mm 4 mps 722 mmHg 87%
    04:00 +25°C° 0.6 mm 3 mps 721 mmHg 87%
    05:00 +25°C° 0.6 mm 3 mps 722 mmHg 87%
    06:00 +25°C° 0.6 mm 3 mps 722 mmHg 86%
    07:00 +25°C° 0.6 mm 3 mps 722 mmHg 86%
    08:00 +26°C° 0.7 mm 4 mps 723 mmHg 83%
    09:00 +27°C° 0.7 mm 4 mps 723 mmHg 80%
    10:00 +28°C° 0.7 mm 4 mps 723 mmHg 76%
    11:00 +28°C° 1.5 mm 4 mps 723 mmHg 75%
    12:00 +28°C° 1.5 mm 3 mps 723 mmHg 74%
    13:00 +28°C° 1.5 mm 3 mps 722 mmHg 73%
    14:00 +28°C° 1.5 mm 3 mps 722 mmHg 74%
    15:00 +28°C° 1.5 mm 3 mps 722 mmHg 74%
    16:00 +28°C° 1.5 mm 3 mps 722 mmHg 74%
    17:00 +27°C° 1.3 mm 2 mps 722 mmHg 78%
    18:00 +27°C° 1.3 mm 2 mps 722 mmHg 81%
    19:00 +26°C° 1.3 mm 2 mps 723 mmHg 85%
    20:00 +26°C° 2.1 mm 2 mps 723 mmHg 85%
    21:00 +26°C° 2.1 mm 2 mps 723 mmHg 86%
    22:00 +25°C° 2.1 mm 2 mps 724 mmHg 86%
    23:00 +25°C° 1.5 mm 2 mps 723 mmHg 86%

    23 April, Tuesday

    Time Temperature Precipitation Wind Pressure Humidity
    00:00 +25°C° 1.5 mm 2 mps 723 mmHg 87%
    01:00 +25°C° 1.5 mm 2 mps 723 mmHg 87%
    02:00 +25°C° 1.3 mm 2 mps 722 mmHg 87%
    03:00 +25°C° 1.3 mm 2 mps 722 mmHg 87%
    04:00 +25°C° 1.3 mm 2 mps 722 mmHg 87%
    05:00 +25°C° 0.7 mm 2 mps 722 mmHg 87%
    06:00 +25°C° 0.7 mm 2 mps 723 mmHg 87%
    07:00 +25°C° 0.7 mm 2 mps 723 mmHg 86%
    08:00 +26°C° 0.1 mm 2 mps 723 mmHg 83%
    09:00 +27°C° 0.1 mm 3 mps 724 mmHg 79%
    10:00 +27°C° 0.1 mm 3 mps 724 mmHg 76%
    11:00 +28°C° 0.3 mm 2 mps 724 mmHg 74%
    12:00 +28°C° 0.3 mm 2 mps 723 mmHg 72%
    13:00 +28°C° 0.3 mm 2 mps 723 mmHg 70%
    14:00 +28°C° 0.3 mm 2 mps 723 mmHg 71%
    15:00 +28°C° 0.3 mm 2 mps 722 mmHg 71%
    16:00 +28°C° 0.3 mm 2 mps 722 mmHg 72%
    17:00 +27°C° 0.1 mm 2 mps 723 mmHg 74%
    18:00 +26°C° 0.1 mm 2 mps 723 mmHg 76%
    19:00 +26°C° 0.1 mm 3 mps 723 mmHg 79%
    20:00 +26°C° 0 mm 3 mps 724 mmHg 79%
    21:00 +25°C° 0 mm 3 mps 724 mmHg 80%
    22:00 +25°C° 0 mm 3 mps 724 mmHg 80%
    23:00 +25°C° 0 mm 3 mps 724 mmHg 81%

    24 April, Wednesday

    Time Temperature Precipitation Wind Pressure Humidity
    00:00 +25°C° 0 mm 3 mps 724 mmHg 82%
    01:00 +25°C° 0 mm 3 mps 723 mmHg 82%
    02:00 +25°C° 0 mm 3 mps 723 mmHg 82%
    03:00 +25°C° 0 mm 3 mps 723 mmHg 83%
    04:00 +25°C° 0 mm 3 mps 723 mmHg 83%
    05:00 +25°C° 0 mm 3 mps 723 mmHg 83%
    06:00 +25°C° 0 mm 3 mps 723 mmHg 83%
    07:00 +25°C° 0 mm 3 mps 723 mmHg 82%
    08:00 +26°C° 0 mm 3 mps 724 mmHg 79%
    09:00 +26°C° 0 mm 4 mps 724 mmHg 76%
    10:00 +27°C° 0 mm 4 mps 724 mmHg 73%
    11:00 +27°C° 0.3 mm 4 mps 724 mmHg 73%
    12:00 +28°C° 0.3 mm 4 mps 723 mmHg 73%
    13:00 +28°C° 0.3 mm 4 mps 723 mmHg 73%
    14:00 +27°C° 0.5 mm 4 mps 723 mmHg 74%
    15:00 +27°C° 0.5 mm 4 mps 722 mmHg 75%
    16:00 +27°C° 0.5 mm 4 mps 722 mmHg 76%
    17:00 +26°C° 0.2 mm 4 mps 722 mmHg 78%
    18:00 +26°C° 0.2 mm 4 mps 723 mmHg 81%
    19:00 +25°C° 0.2 mm 4 mps 723 mmHg 83%
    20:00 +25°C° 0 mm 4 mps 723 mmHg 83%
    21:00 +25°C° 0 mm 4 mps 723 mmHg 83%
    22:00 +25°C° 0 mm 4 mps 724 mmHg 83%
    23:00 +25°C° 0 mm 4 mps 723 mmHg 83%
    Show more